Temperature
20 21 21 21 22 21 20 19 20 20 20 21 20 20 20 20 21 21 22 22 22 22 22 22 22 22 21 21 21 21 20 20 20 20 19 19 18 18 18 18 17 17 17 17
20 21 21 21 21 21 21 21 20 20 20 20 20 20 20 20 20 20 21 22 22 22 22 22 22 22 21 21 21 21 20 20 20 19 19 19 18 18 18 18 17 17 17 17
19 20 21 20 20 21 21 20 20 20 20 19 19 19 19 20 20 21 21 22 22 22 22 22 22 22 21 21 21 20 20 20 19 19 19 19 18 18 18 17 17 17 17 16
16 19 20 20 20 21 20 20 19 19 19 19 19 20 20 21 20 21 21 22 22 22 22 22 21 21 21 21 20 20 20 20 19 19 19 18 18 18 18 17 17 17 17 16
15 17 19 20 20 20 20 20 19 19 18 19 19 19 19 20 21 21 21 21 22 22 21 21 21 21 20 20 20 19 19 19 19 18 18 18 17 17 17 17 17 17 16 16
15 18 18 19 20 20 20 19 19 18 18 18 18 18 18 20 20 20 20 21 21 21 21 21 20 20 20 19 19 19 18 18 18 18 18 18 17 17 17 17 16 16 16 16
15 17 17 18 18 20 20 19 19 19 18 18 18 19 20 20 20 20 20 20 20 20 20 20 20 19 19 19 18 18 18 18 18 18 17 17 17 17 17 17 16 16 16 15
14 16 17 17 17 18 18 19 19 19 19 19 19 19 19 19 19 19 19 19 19 19 19 19 19 19 18 18 18 18 18 18 18 17 17 17 17 16 16 16 16 16 15 15
14 15 16 17 17 18 19 18 19 19 19 19 18 18 18 18 18 18 18 18 18 18 18 18 18 18 18 18 17 17 17 17 17 17 17 16 16 16 16 16 15 15 15 15
13 14 15 16 17 18 19 19 19 19 19 19 18 18 18 18 18 18 18 17 17 17 17 17 17 17 17 17 17 17 17 17 16 16 16 16 15 15 15 15 15 15 15 15
13 14 15 16 17 18 18 18 18 19 18 18 18 17 18 18 17 17 17 17 17 16 16 16 16 16 16 16 16 16 16 16 16 15 15 15 15 15 15 15 15 15 15 14
13 14 14 15 17 17 18 18 18 18 18 17 18 17 17 17 17 16 16 16 16 16 16 16 16 16 16 16 16 16 16 15 15 15 15 15 14 14 14 14 14 14 14 14
15 16 16 16 17 17 17 17 17 17 17 17 17 17 17 16 16 16 16 16 16 16 16 15 15 15 15 15 15 15 15 15 15 14 14 14 14 14 14 14 14 13 13 13
16 16 15 16 16 16 17 17 17 17 17 17 16 16 16 16 15 15 15 15 15 15 15 15 15 15 15 15 15 15 14 14 14 14 14 14 14 14 13 13 13 13 13 13
15 16 16 16 16 16 16 17 16 16 16 16 16 16 15 15 15 15 15 15 14 15 14 14 14 14 14 14 14 14 14 14 14 14 14 13 13 13 13 13 13 13 13 13
15 15 15 15 15 16 16 16 16 16 15 15 15 15 15 15 14 14 14 14 14 14 14 14 14 14 13 13 14 14 14 14 13 13 13 13 13 13 13 13 12 12 12 12
14 14 14 14 15 15 15 15 15 15 15 15 15 15 15 14 14 14 14 14 14 13 13 13 13 13 13 13 13 13 13 13 13 13 13 13 13 13 12 12 12 12 12 12
15 15 15 15 14 14 14 15 15 15 15 15 14 14 14 14 14 13 13 13 13 13 13 13 13 13 13 13 13 13 13 13 13 13 13 12 12 12 12 12 12 12 12 12
14 14 14 14 14 14 14 14 14 14 14 14 14 14 13 13 13 13 13 12 12 12 12 12 12 12 12 12 12 12 12 12 12 12 12 12 12 12 12 12 11 11 11 11
14 14 14 14 14 14 14 14 14 14 14 14 13 13 13 13 13 13 12 12 12 12 12 12 12 12 12 12 12 12 12 12 12 12 12 12 11 11 11 11 11 11 11 11
13 13 13 13 13 13 13 13 13 14 13 13 13 13 13 13 12 12 12 12 12 12 12 12 12 12 12 12 12 12 12 12 12 12 11 11 11 11 11 11 11 11 11 10
13 13 13 13 13 13 13 13 13 13 13 13 13 12 12 12 12 12 12 12 12 11 11 11 12 11 11 11 11 11 11 11 11 11 11 11 11 11 11 10 10 10 10 10
13 13 13 13 13 13 13 13 13 13 13 13 13 12 12 12 12 12 11 11 11 11 11 11 11 11 11 11 11 11 11 11 11 11 11 11 11 10 10 10 10 10 9 9
12 12 12 13 13 13 13 12 12 12 12 12 12 12 12 12 11 11 11 11 11 11 11 11 11 11 11 11 11 11 11 11 11 10 10 10 10 10 10 10 9 9 9 8
12 12 12 12 12 12 12 12 12 12 12 12 12 12 11 11 11 11 11 11 11 11 11 11 11 11 10 10 10 10 10 10 10 10 10 10 10 9 9 9 9 8 8 8
11 12 12 12 12 12 12 12 12 12 12 11 11 11 11 11 11 11 11 11 11 10 10 10 10 10 10 10 10 10 10 10 10 10 10 9 9 9 9 9 8 8 7 7
11 11 11 11 11 12 12 12 12 11 11 11 11 11 11 11 11 11 11 10 10 10 10 10 10 10 10 10 10 10 10 10 9 9 9 9 9 8 8 8 8 7 7 7
Wind_Speed
5 4 4 4 5 7 6 8 9 9 8 9 7 6 4 3 3 4 4 5 6 6 6 5 5 5 5 6 6 6 7 7 7 6 5 5 5 5 5 5 5 4 4 4
1 1 2 2 4 6 5 4 5 4 7 6 3 2 3 4 5 5 5 6 6 6 6 6 6 6 6 6 6 6 7 7 6 6 5 5 5 5 4 4 4 4 4 4
2 2 2 3 6 6 4 4 6 7 8 3 2 5 6 6 5 6 6 6 6 6 6 6 6 6 7 6 5 5 6 6 6 6 6 5 5 4 5 5 4 4 4 4
2 2 5 8 3 4 4 3 3 4 4 5 5 4 2 3 4 5 5 5 5 4 4 4 5 5 6 6 5 5 4 4 4 5 5 4 4 4 4 4 4 4 4 4
4 3 5 5 2 3 4 4 3 4 3 1 2 2 2 1 3 4 4 4 3 3 3 4 4 5 6 5 5 4 4 4 4 4 4 4 4 4 4 3 3 3 3 3
5 4 7 7 3 1 4 4 4 4 4 3 3 1 4 2 0 1 1 1 1 2 3 4 4 5 6 5 4 4 3 3 4 4 4 4 4 4 3 3 3 3 3 3
4 4 7 5 3 3 5 7 4 4 5 6 4 5 3 0 1 2 2 2 3 4 4 3 4 6 6 5 4 4 3 3 3 3 4 4 3 2 2 2 3 3 2 2
5 4 7 3 2 5 6 3 2 4 4 4 2 2 1 2 2 3 4 4 5 5 4 4 4 6 5 3 2 2 3 3 2 2 2 2 3 2 2 3 2 2 2 2
6 6 5 3 4 4 2 3 3 3 3 4 3 2 2 2 3 4 4 4 4 5 5 4 4 4 4 2 2 3 3 3 2 2 2 2 3 3 2 2 2 2 2 3
2 5 4 4 3 3 1 2 2 3 4 4 4 4 3 3 3 3 3 4 4 6 5 3 2 2 2 2 3 4 3 2 2 2 2 1 2 2 2 2 2 2 3 3
2 5 4 4 3 2 2 1 2 3 4 4 6 4 4 4 3 3 3 3 4 5 5 3 2 1 1 2 4 4 3 2 2 2 2 1 1 1 2 2 3 4 3 3
6 6 4 6 6 3 1 1 2 5 4 3 4 4 3 3 3 3 3 3 4 4 4 2 2 2 1 2 4 4 3 2 2 1 1 1 1 1 2 1 1 2 3 3
5 4 4 5 4 3 2 1 2 4 5 4 3 4 4 3 3 4 3 3 3 3 3 2 2 1 1 1 3 4 3 3 2 2 2 2 2 2 0 2 2 2 1 2
5 2 3 4 3 2 2 2 3 4 4 4 4 4 4 3 3 4 3 2 3 4 4 3 2 1 0 1 4 4 3 3 2 2 2 2 1 1 1 1 1 2 2 2
5 4 5 3 1 1 1 4 4 3 3 3 4 4 4 4 3 2 2 3 3 4 3 3 2 1 1 2 3 3 3 2 2 2 1 1 1 1 1 1 0 1 2 2
3 2 2 2 2 1 2 3 4 3 3 4 3 3 3 3 3 2 2 3 4 3 2 2 1 1 1 2 3 2 2 3 3 2 2 1 1 1 1 0 0 1 2 2
3 3 3 3 2 3 3 4 4 4 3 4 4 4 4 4 3 2 1 1 3 2 2 1 1 0 1 2 3 2 2 2 3 2 2 1 1 1 0 1 1 1 2 2
5 6 6 5 4 3 3 3 3 4 4 4 4 5 5 5 4 3 2 2 3 2 1 1 1 1 2 2 3 2 2 2 2 2 1 1 1 0 1 1 1 1 2 2
3 4 4 4 4 4 3 3 3 3 3 4 5 4 4 4 4 4 3 3 2 1 2 1 1 2 2 2 3 3 3 2 2 1 1 1 1 0 1 1 1 1 2 2
1 2 2 2 2 3 3 3 3 2 3 4 5 4 4 3 4 4 4 2 2 3 2 1 2 2 2 2 3 2 3 3 2 1 1 1 1 1 1 1 1 1 1 1
1 2 2 2 2 2 3 3 3 3 3 4 5 5 5 4 4 4 4 2 3 1 1 2 2 2 2 2 2 2 2 2 2 2 2 1 1 1 1 1 1 1 1 1
1 2 1 1 2 1 1 2 3 4 4 4 4 5 4 4 3 3 2 3 3 2 2 2 2 3 3 3 2 2 2 2 2 2 2 2 1 1 1 1 1 1 0 1
2 2 2 2 2 2 1 2 3 4 4 5 6 6 6 4 4 3 3 2 2 3 2 2 2 3 4 3 2 2 2 2 2 2 2 2 2 2 1 1 1 0 0 1
2 2 1 1 1 2 1 1 1 2 3 3 3 4 5 4 2 2 2 2 3 3 2 2 3 4 4 3 2 2 2 2 2 2 2 1 1 1 1 1 1 0 1 1
2 2 2 2 2 2 2 1 1 2 2 2 3 3 3 3 3 3 2 2 3 3 2 2 3 4 3 2 2 2 2 1 2 2 2 1 1 1 1 1 1 0 0 1
2 2 2 3 3 2 2 2 2 2 2 3 2 2 2 2 3 3 3 3 3 3 2 1 2 2 2 2 2 2 2 1 1 1 1 2 2 2 1 1 1 0 0 1
2 2 2 1 1 2 2 3 3 2 3 4 3 2 3 3 3 3 3 3 2 1 1 1 1 2 2 2 2 2 1 1 1 1 1 2 2 1 1 1 1 1 1 1
Wind_Direction
223 219 179 193 199 183 182 184 187 220 224 247 243 233 224 200 179 167 172 175 181 186 193 193 187 186 183 182 178 178 177 187 197 194 189 188 189 193 198 199 203 197 193 192
275 255 172 210 230 203 201 190 198 218 252 253 252 196 187 196 185 188 197 196 192 187 184 190 193 191 184 180 172 168 177 189 186 176 180 188 188 189 193 198 201 197 203 202
238 291 55 250 224 195 185 191 177 207 235 241 227 212 209 205 202 206 208 205 198 194 191 191 190 180 178 176 164 167 181 184 177 174 182 190 184 181 194 202 201 203 208 208
142 86 212 238 237 179 175 209 208 214 230 210 216 219 209 196 205 215 214 210 202 192 190 187 174 166 160 152 154 164 174 174 170 168 178 179 174 186 196 198 199 208 211 214
134 177 255 285 245 166 177 244 235 216 224 178 125 61 340 273 204 208 217 218 211 196 177 157 150 145 137 140 144 154 171 176 176 169 166 168 182 195 192 187 199 213 216 215
135 161 220 239 260 224 128 257 252 202 192 172 115 148 260 277 208 181 151 130 132 129 126 129 127 129 129 133 136 160 179 180 169 162 164 178 191 192 188 187 202 210 222 223
158 196 249 257 294 98 160 235 244 201 189 179 191 213 222 167 64 77 88 102 105 107 112 122 118 124 130 137 166 184 170 160 156 162 170 176 178 174 169 181 192 203 214 239
152 180 243 276 102 173 217 261 227 202 186 180 191 173 141 121 105 91 85 86 100 104 98 98 111 122 132 158 184 152 133 136 144 150 153 153 147 147 152 156 165 193 216 258
188 209 247 256 227 245 219 220 230 196 174 157 148 151 129 106 102 99 102 99 98 110 102 95 106 122 144 174 149 128 123 132 140 131 129 140 153 163 165 166 178 206 220 251
261 272 277 285 299 317 304 240 227 162 146 140 140 139 126 119 107 101 98 108 102 107 109 98 100 139 162 150 131 128 130 131 123 122 126 137 154 168 176 189 199 212 226 246
263 282 318 306 287 298 335 27 100 105 116 133 127 129 131 125 116 111 104 103 107 116 119 116 110 112 101 121 126 123 124 123 119 131 147 159 160 177 195 216 213 209 226 228
231 235 223 264 279 287 293 73 126 114 97 95 124 133 120 120 121 118 114 106 105 96 94 95 85 65 72 125 129 124 119 120 126 136 148 153 150 39 24 257 262 216 230 231
236 245 239 264 287 277 237 193 151 134 133 128 119 125 122 120 120 112 107 112 124 120 107 95 87 70 72 126 127 128 133 135 133 136 144 148 150 151 34 5 18 18 338 283
240 238 266 260 253 250 196 154 119 109 113 127 129 121 116 114 112 114 126 128 128 113 103 96 87 73 109 133 122 123 128 132 134 147 154 157 160 162 167 166 343 340 341 334
264 240 224 235 246 244 154 130 116 115 113 112 124 129 127 124 126 128 129 123 113 99 93 94 84 15 36 120 123 129 132 133 130 128 134 145 146 144 147 154 247 313 329 331
280 277 207 177 198 203 143 140 149 163 144 131 130 133 134 131 128 124 126 129 123 119 113 109 89 325 160 137 125 129 134 126 120 122 116 109 114 127 137 139 300 302 300 305
217 232 212 196 204 194 186 181 178 180 161 150 153 144 131 124 117 107 71 102 129 132 129 144 184 313 118 135 139 143 132 128 118 113 118 122 117 132 173 192 244 277 286 294
216 223 216 200 206 207 198 181 181 183 176 168 148 140 142 149 161 171 166 123 99 79 42 227 174 132 129 141 146 142 131 128 123 125 125 121 127 184 228 236 251 273 304 315
221 217 217 217 220 210 195 192 192 187 176 158 152 159 165 168 171 170 157 137 131 152 292 302 124 125 132 150 136 133 132 131 121 122 126 124 119 201 232 239 274 295 301 307
227 196 195 204 209 190 186 193 180 172 171 159 152 149 153 170 170 160 147 164 215 220 227 211 141 131 146 162 143 147 145 146 148 151 144 152 185 234 249 249 258 275 300 317
202 176 171 190 190 182 188 189 181 179 171 164 166 174 178 181 172 158 153 204 261 225 185 166 160 165 173 169 151 153 151 155 163 168 171 186 208 244 276 270 262 272 295 315
211 184 179 166 168 196 207 187 175 171 168 173 173 173 171 175 169 162 191 213 220 187 177 176 177 180 175 163 160 158 160 166 175 179 181 187 194 213 239 246 259 284 343 12
208 196 200 198 194 193 188 183 180 176 184 188 185 183 183 179 171 173 214 233 201 180 172 183 182 169 151 144 151 153 155 162 176 183 190 196 200 202 204 207 206 165 53 359
199 197 206 196 145 138 161 219 169 169 174 176 178 175 167 159 176 212 208 195 180 167 170 181 167 154 145 148 147 150 162 173 180 185 189 196 200 189 177 161 135 68 28 356
178 171 160 152 164 180 179 148 109 119 130 129 133 145 158 169 179 188 166 158 152 145 157 165 155 154 154 153 156 165 176 186 189 186 192 191 189 169 150 139 137 157 359 352
168 171 180 184 181 172 164 158 163 163 139 128 125 139 140 138 140 139 136 138 139 139 152 164 163 159 162 165 170 180 188 197 197 185 171 162 156 142 130 130 137 190 314 323
143 146 141 133 147 163 158 156 157 163 160 155 156 163 152 143 136 137 139 138 133 140 157 176 175 173 170 170 172 175 172 169 161 153 148 146 143 147 166 182 203 235 272 286
Height
1484 1481 1481 1483 1483 1485 1489 1493 1500 1495 1492 1481 1477 1476 1476 1476 1477 1479 1480 1482 1483 1485 1487 1490 1492 1495 1498 1501 1503 1505 1507 1509 1510 1512 1514 1515 1516 1517 1519 1520 1520 1521 1522 1522
1484 1480 1480 1482 1480 1480 1482 1484 1486 1486 1485 1475 1474 1474 1475 1475 1476 1477 1478 1479 1481 1483 1485 1487 1490 1492 1495 1498 1500 1502 1503 1505 1507 1509 1511 1512 1513 1514 1515 1516 1517 1518 1519 1519
1493 1484 1482 1489 1480 1479 1480 1478 1480 1484 1479 1473 1473 1473 1472 1473 1474 1475 1476 1477 1479 1480 1482 1485 1487 1490 1492 1495 1497 1499 1501 1503 1504 1506 1507 1509 1509 1511 1512 1513 1514 1515 1516 1516
1497 1492 1500 1483 1470 1471 1474 1474 1473 1472 1471 1470 1470 1470 1471 1472 1473 1474 1475 1476 1477 1479 1481 1483 1485 1487 1490 1492 1494 1497 1499 1500 1502 1503 1504 1505 1506 1507 1508 1510 1511 1511 1512 1513
1500 1500 1492 1478 1470 1470 1474 1475 1470 1470 1469 1469 1469 1470 1470 1471 1472 1472 1474 1475 1476 1478 1479 1481 1483 1485 1487 1489 1492 1494 1496 1497 1499 1500 1502 1503 1504 1504 1505 1507 1508 1508 1509 1509
1496 1497 1497 1479 1467 1465 1470 1477 1467 1467 1467 1468 1468 1473 1470 1469 1470 1471 1472 1473 1474 1476 1478 1479 1481 1483 1485 1487 1490 1492 1494 1495 1497 1498 1499 1500 1501 1502 1503 1505 1505 1506 1507 1507
1492 1492 1484 1469 1465 1465 1480 1475 1464 1464 1464 1465 1466 1467 1467 1467 1468 1469 1470 1471 1472 1474 1476 1478 1480 1482 1484 1486 1488 1490 1492 1493 1495 1496 1497 1498 1499 1500 1501 1502 1503 1504 1504 1505
1490 1491 1486 1466 1465 1468 1467 1462 1461 1462 1462 1463 1464 1464 1465 1466 1467 1468 1468 1469 1471 1472 1474 1476 1479 1481 1483 1485 1487 1489 1490 1492 1493 1494 1495 1496 1497 1498 1499 1500 1500 1500 1501 1502
1479 1477 1467 1464 1463 1462 1461 1460 1460 1460 1461 1462 1463 1463 1464 1465 1466 1468 1468 1469 1471 1472 1473 1475 1477 1480 1482 1484 1486 1487 1488 1489 1490 1491 1493 1494 1495 1496 1497 1497 1497 1498 1499 1499
1473 1468 1464 1463 1461 1460 1460 1460 1459 1459 1460 1461 1461 1462 1463 1465 1466 1467 1468 1469 1470 1471 1473 1475 1477 1479 1482 1483 1484 1485 1486 1487 1488 1489 1491 1492 1493 1494 1494 1495 1495 1496 1496 1497
1472 1467 1463 1461 1461 1460 1460 1459 1459 1459 1460 1460 1461 1462 1463 1464 1466 1467 1468 1469 1471 1471 1473 1475 1477 1479 1481 1482 1483 1483 1484 1485 1487 1488 1489 1490 1491 1492 1493 1493 1494 1494 1494 1494
1469 1464 1464 1461 1460 1460 1460 1459 1459 1459 1460 1461 1462 1462 1463 1464 1465 1467 1468 1469 1470 1471 1473 1475 1476 1478 1479 1481 1482 1482 1483 1484 1485 1486 1488 1489 1489 1490 1491 1492 1492 1492 1492 1492
1461 1460 1460 1460 1460 1460 1459 1459 1459 1459 1460 1461 1462 1463 1463 1464 1465 1466 1468 1469 1470 1471 1472 1474 1475 1476 1478 1479 1480 1481 1482 1484 1485 1485 1486 1487 1487 1488 1488 1489 1489 1489 1489 1489
1459 1459 1458 1458 1459 1459 1459 1459 1459 1460 1460 1461 1462 1463 1464 1464 1465 1465 1467 1468 1469 1470 1471 1473 1474 1475 1476 1477 1479 1480 1482 1483 1484 1485 1485 1485 1486 1486 1487 1487 1487 1487 1487 1487
1457 1457 1457 1456 1457 1457 1457 1458 1458 1459 1460 1461 1462 1463 1464 1464 1464 1465 1466 1467 1468 1469 1470 1471 1473 1474 1475 1476 1478 1479 1480 1481 1482 1483 1484 1484 1484 1484 1485 1485 1485 1485 1485 1485
1455 1455 1455 1454 1455 1455 1455 1456 1457 1458 1459 1460 1462 1463 1464 1464 1465 1466 1466 1466 1467 1467 1468 1470 1471 1473 1474 1475 1476 1477 1478 1479 1480 1481 1482 1482 1482 1483 1483 1483 1483 1483 1482 1482
1453 1453 1453 1453 1454 1454 1455 1455 1456 1457 1458 1460 1461 1462 1463 1464 1464 1465 1465 1465 1466 1467 1468 1469 1470 1471 1472 1473 1475 1476 1477 1477 1478 1479 1479 1480 1481 1481 1481 1482 1481 1481 1481 1480
1451 1451 1451 1451 1452 1453 1453 1454 1456 1457 1458 1459 1460 1461 1462 1462 1463 1464 1465 1465 1465 1466 1467 1469 1470 1471 1471 1472 1473 1474 1475 1476 1476 1477 1478 1478 1479 1480 1480 1480 1479 1479 1479 1478
1448 1448 1449 1450 1450 1451 1452 1453 1454 1455 1456 1457 1459 1460 1460 1461 1462 1463 1464 1464 1464 1464 1465 1467 1468 1469 1470 1471 1472 1473 1473 1474 1475 1476 1476 1477 1477 1478 1478 1478 1478 1477 1477 1476
1445 1446 1447 1448 1449 1450 1451 1452 1453 1453 1455 1456 1457 1458 1459 1460 1461 1462 1463 1463 1463 1464 1465 1466 1468 1468 1469 1470 1471 1471 1472 1473 1473 1474 1474 1475 1475 1476 1476 1476 1475 1475 1474 1474
1443 1444 1445 1446 1447 1448 1449 1450 1451 1451 1453 1454 1456 1456 1457 1458 1460 1460 1461 1462 1462 1464 1465 1466 1467 1467 1468 1468 1469 1470 1470 1471 1472 1472 1473 1473 1473 1473 1473 1473 1473 1473 1472 1471
1442 1443 1444 1445 1445 1446 1447 1448 1449 1450 1451 1452 1454 1455 1456 1457 1458 1459 1460 1461 1461 1463 1464 1465 1466 1466 1467 1468 1468 1468 1469 1469 1470 1470 1471 1471 1471 1471 1471 1471 1471 1470 1469 1468
1442 1442 1442 1443 1443 1444 1445 1447 1448 1448 1449 1450 1451 1452 1454 1455 1456 1458 1458 1460 1461 1462 1463 1463 1464 1465 1466 1466 1467 1467 1467 1467 1468 1468 1468 1469 1469 1469 1469 1468 1468 1467 1466 1466
1440 1441 1441 1442 1442 1443 1444 1445 1446 1447 1447 1448 1449 1450 1452 1453 1455 1456 1457 1459 1460 1461 1462 1462 1463 1464 1464 1465 1465 1465 1466 1466 1466 1466 1466 1466 1466 1466 1466 1466 1465 1465 1463 1463
1439 1439 1439 1440 1441 1442 1444 1444 1445 1446 1446 1447 1448 1449 1451 1453 1454 1455 1456 1458 1459 1460 1461 1462 1462 1463 1463 1464 1464 1464 1464 1464 1465 1465 1464 1464 1464 1464 1463 1463 1463 1462 1460 1460
1437 1438 1438 1439 1440 1442 1443 1443 1444 1444 1445 1446 1447 1449 1450 1452 1454 1455 1456 1457 1458 1459 1460 1461 1461 1462 1462 1462 1463 1463 1463 1463 1463 1463 1463 1462 1462 1461 1461 1461 1460 1459 1458 1456
1436 1436 1437 1438 1440 1441 1442 1442 1443 1444 1445 1446 1447 1449 1450 1452 1453 1454 1455 1456 1458 1459 1459 1460 1461 1461 1461 1462 1462 1462 1462 1462 1461 1461 1461 1460 1460 1459 1459 1458 1457 1456 1455 1453